Preview of NWS' New Version of Forecast
This preview is not operational and should not be used for support decisions.

Regional Weather Roundup (RWR)

Issued by National Weather Service (NWS)

                            
000
ASUS43 KTOP 220608
RWRKS 

WEATHER ROUNDUP FOR KANSAS
NATIONAL WEATHER SERVICE GOODLAND KS
1200 AM CST FRI FEB 22 2019

NOTE:  "FAIR" INDICATES FEW OR NO CLOUDS BELOW 12,000 FEET WITH NO
SIGNIFICANT WEATHER AND/OR OBSTRUCTIONS TO VISIBILITY.

KSZ001>006-013>018-027>032-041>047-220700-
NORTHWEST KANSAS
  
CITY           SKY/WX    TMP DP  RH WIND       PRES   REMARKS
GOODLAND       CLOUDY    31  30  96 SE18      29.93S FOG     WCI  19  
6HR MIN TEMP:  31; 6HR MAX TEMP:  35;                                

HAYS           CLEAR     29  28  96 E10       30.06R WCI  20          
HILL CITY      CLEAR     29  26  89 E8        30.06R                  
6HR MIN TEMP:  29; 6HR MAX TEMP:  39;                                

RUSSELL        CLEAR     31  29  92 E14       30.07R WCI  21          
6HR MIN TEMP:  31; 6HR MAX TEMP:  39;                                

$$

KSZ061>065-074>080-084>089-220700-
SOUTHWEST KANSAS
  
CITY           SKY/WX    TMP DP  RH WIND       PRES   REMARKS
DODGE CITY     MOCLDY    33  26  75 SE14      29.98F WCI  23          
6HR MIN TEMP:  33; 6HR MAX TEMP:  48;                                

ELKHART        PTCLDY    40  31  69 S10       29.91S WCI  34          
GARDEN CITY    PTCLDY    33  27  78 SE13      29.94F WCI  24          
6HR MIN TEMP:  31; 6HR MAX TEMP:  49;                                

GREAT BEND     CLEAR     31  29  92 E10       30.07R WCI  22          
LIBERAL        CLOUDY    38  27  64 SE10      29.95S WCI  31          
PRATT          CLEAR     33  31  92 E8        30.06S                  
6HR MIN TEMP:  33; 6HR MAX TEMP:  43;                                

$$

KSZ066>073-081>083-090>101-220700-
SOUTHEAST KANSAS
  
CITY           SKY/WX    TMP DP  RH WIND       PRES   REMARKS
CHANUTE        CLEAR     36  26  67 E9        30.15S                  
6HR MIN TEMP:  35; 6HR MAX TEMP:  44;                                

COFFEYVILLE    CLEAR     33  27  78 NE6       30.14R                  
6HR MIN TEMP:  33; 6HR MAX TEMP:  45;                                

HUTCHINSON     CLEAR     32  27  81 E9        30.10R                  
6HR MIN TEMP:  31; 6HR MAX TEMP:  43;                                

MEDICINE LODGE   N/A     34  30  85 E7        30.06S                  
NEWTON         CLEAR     31  27  85 E9        30.13S                  
PARSONS        CLEAR     35  28  75 E6        30.15S                  
6HR MIN TEMP:  34; 6HR MAX TEMP:  44;                                

WICHITA INTL   CLEAR     36  27  69 E8        30.11R                  
6HR MIN TEMP:  36; 6HR MAX TEMP:  47;                                

WICHITA JABRA  CLEAR     31  24  75 NE6       30.12R                  
6HR MIN TEMP:  31; 6HR MAX TEMP:  44;                                

WICHITA MCCONL CLEAR     35  25  67 NE7       30.11R                  
WINFIELD       PTCLDY    35  27  72 E9        30.11F                  
6HR MIN TEMP:  34; 6HR MAX TEMP:  48;                                

$$

KSZ007>012-019>026-033>040-048>060-102>105-220700-
NORTHEAST KANSAS
  
CITY           SKY/WX    TMP DP  RH WIND       PRES   REMARKS
CONCORDIA      CLEAR     29  22  75 E9        30.15S                  
6HR MIN TEMP:  29; 6HR MAX TEMP:  36;                                

EMPORIA        MOCLDY    28  25  88 E3        30.16R                  
6HR MIN TEMP:  28; 6HR MAX TEMP:  36;                                

LAWRENCE       CLOUDY    34  24  67 NE12      30.22R WCI  25          
6HR MIN TEMP:  32; 6HR MAX TEMP:  38;                                

MANHATTAN      CLEAR     32  24  72 E7        30.19R                  
6HR MIN TEMP:  32; 6HR MAX TEMP:  39;                                

MARYSVILLE     CLOUDY    30  23  74 E7        30.20S                  
OLATHE IND     CLEAR     31  23  72 E12       30.20S WCI  22          
6HR MIN TEMP:  30; 6HR MAX TEMP:  37;                                

OLATHE EXE     CLEAR     30  23  75 E10       30.20S WCI  21          
6HR MIN TEMP:  29; 6HR MAX TEMP:  37;                                

SALINA         CLEAR     32  26  78 E7        30.15R                  
6HR MIN TEMP:  32; 6HR MAX TEMP:  41;                                

TOPEKA BILLARD CLOUDY    33  24  69 E8        30.21R                  
6HR MIN TEMP:  33; 6HR MAX TEMP:  39;                                

TOPEKA FORBES  CLOUDY    33  24  69 E9        30.20R                  
6HR MIN TEMP:  33; 6HR MAX TEMP:  38;                                

$$